Regional Weather Roundup
Issued by NWS

Home | Current Version | Previous Version | Text Only | Print | Product List | Glossary Off
Versions: 1 2 3 4 5 6 7 8 9 10 11 12 13 14 15 16 17 18 19 20 21 22 23 24 25 26 27 28 29 30 31 32 33 34 35 36 37 38 39 40 41 42 43 44 45 46 47 48 49 50

675
ASUS43 KMKX 010011
RWRWI

WISCONSIN REGIONAL WEATHER ROUNDUP
NATIONAL WEATHER SERVICE MILWAUKEE/SULLIVAN WI
700 PM CDT SAT APR 30 2016

NOTE: "FAIR" INDICATES FEW OR NO CLOUDS BELOW 12,000 FEET WITH NO
SIGNIFICANT WEATHER AND/OR OBSTRUCTIONS TO VISIBILITY.

WIZ001-002-006>008-014>016-023>028-010100-
NORTHWEST WISCONSIN

CITY           SKY/WX    TMP DP  RH WIND       PRES   REMARKS
SUPERIOR ARPT  CLOUDY    41  32  71 NE14G24   30.23S
6HR MIN TEMP:  41; 6HR MAX TEMP:  46;

ASHLAND        CLOUDY    44  32  62 NE15      30.23S
6HR MIN TEMP:  44; 6HR MAX TEMP:  50;

HAYWARD        PTSUNNY   46  28  49 NE17      30.16S
6HR MIN TEMP:  46; 6HR MAX TEMP:  56;

SIREN          CLOUDY    49  25  37 NE15G24   30.13S
6HR MIN TEMP:  49; 6HR MAX TEMP:  58;

CUMBERLAND     CLOUDY    46  28  49 N18G24    30.09F
RICE LAKE      CLOUDY    50  30  46 N23G29    30.09F
6HR MIN TEMP:  50; 6HR MAX TEMP:  60;

CHETEK         CLOUDY    52  34  50 NE13      30.07S
6HR MIN TEMP:  52; 6HR MAX TEMP:  58;

LADYSMITH      CLOUDY    55  34  44 NE12      30.10R
6HR MIN TEMP:  55; 6HR MAX TEMP:  60;

EAU CLAIRE     CLOUDY    55  34  45 SE7       30.04S
6HR MIN TEMP:  55; 6HR MAX TEMP:  59;

MENOMONIE      CLOUDY    55  38  54 NE5       30.04S
6HR MIN TEMP:  55; 6HR MAX TEMP:  58;

NEW RICHMOND   CLOUDY    52  32  46 NE17G28   30.06S
6HR MIN TEMP:  52; 6HR MAX TEMP:  58;

OSCEOLA        CLOUDY    52  33  47 NE17G25   30.10S
6HR MIN TEMP:  52; 6HR MAX TEMP:  60;

$$

WIZ003>005-009-010-017-018-010100-
NORTH CENTRAL WISCONSIN

CITY           SKY/WX    TMP DP  RH WIND       PRES   REMARKS
MANITOWISH WTR MOSUNNY   48  33  56 N12G17    30.13R
6HR MIN TEMP:  48; 6HR MAX TEMP:  56;

ARBOR VITAE    CLOUDY    52  32  46 NE12G18   30.12R
6HR MIN TEMP:  52; 6HR MAX TEMP:  57;

WOODRUFF       CLOUDY    52  32  46 NE12G18   30.12R
6HR MIN TEMP:  52; 6HR MAX TEMP:  57;

RHINELANDER    CLOUDY    52  30  43 NE10G20   30.11R
6HR MIN TEMP:  52; 6HR MAX TEMP:  56;

EAGLE RIVER    CLOUDY    50  30  45 NE12      30.12R
LAND O LAKES   PTCLDY    49  31  51 N13G21    30.15R
6HR MIN TEMP:  49; 6HR MAX TEMP:  55;

PHILLIPS       PTSUNNY   52  34  49 NE15G21   30.09S
6HR MIN TEMP:  52; 6HR MAX TEMP:  56;

TOMAHAWK       CLOUDY    53  31  44 NE7       30.11R
6HR MIN TEMP:  53; 6HR MAX TEMP:  58;

MEDFORD        CLOUDY    52  34  49 SE5       30.07S
6HR MIN TEMP:  52; 6HR MAX TEMP:  59;

MERRILL        CLOUDY    54  34  46 E13       30.09S
$$

WIZ029-030-035-036-043>047-010100-
CENTRAL WISCONSIN

CITY           SKY/WX    TMP DP  RH WIND       PRES   REMARKS
WAUSAU         CLOUDY    54  32  43 E7        30.07R
6HR MIN TEMP:  54; 6HR MAX TEMP:  58;

MOSINEE        MOCLDY    52  30  43 E10       30.09R
MARSHFIELD     LGT RAIN  51  31  46 E10       30.06F
6HR MIN TEMP:  51; 6HR MAX TEMP:  55; 6HR PCP: TRACE;

STEVENS POINT  CLOUDY    49  30  47 E9        30.09S
6HR MIN TEMP:  49; 6HR MAX TEMP:  51;

WAUPACA        LGT RAIN  52  29  41 NE7       30.08S
6HR MIN TEMP:  52; 6HR MAX TEMP:  55;

WAUTOMA        NOT AVBL
WISC RAPIDS    LGT RAIN  50  29  44 E18G24    30.09R
6HR MIN TEMP:  50; 6HR MAX TEMP:  53; 6HR PCP: TRACE;

CAMP DOUGLAS   LGT RAIN  45  45 100 NE10      30.04F FOG
6HR MIN TEMP:  45; 6HR MAX TEMP:  52; 6HR PCP:  0.07;

$$

WIZ011>013-019>022-031-037>040-048>050-010100-
NORTHEAST WISCONSIN

CITY           SKY/WX    TMP DP  RH WIND       PRES   REMARKS
ANTIGO         CLOUDY    50  34  53 E3        30.10R
6HR MIN TEMP:  50; 6HR MAX TEMP:  55;

SHAWANO        CLOUDY    53  33  46 E7        30.10R
6HR MIN TEMP:  53; 6HR MAX TEMP:  56;

OCONTO         CLOUDY    50  30  45 NE10G17   30.09R
6HR MIN TEMP:  50; 6HR MAX TEMP:  53;

STURGEON BAY   MOCLDY    52  27  37 NE12      30.10R
6HR MIN TEMP:  48; 6HR MAX TEMP:  52;

GREEN BAY      CLOUDY    49  37  63 NE8       30.08R
6HR MIN TEMP:  49; 6HR MAX TEMP:  52;

MANITOWOC      CLOUDY    49  30  48 VRB7G17   30.07R
6HR MIN TEMP:  47; 6HR MAX TEMP:  50;

APPLETON       CLOUDY    50  32  50 NE9       30.06R
CLINTONVILLE   CLOUDY    50  28  43 NE8       30.09R
OSHKOSH        LGT RAIN  48  39  71 NE12      30.05R
6HR MIN TEMP:  48; 6HR MAX TEMP:  53; 6HR PCP:  0.03;

$$

WIZ032>034-041-042-053>061-010100-
SOUTHWEST WISCONSIN

CITY           SKY/WX    TMP DP  RH WIND       PRES   REMARKS
LA CROSSE      LGT RAIN  47  37  68 NE16G24   30.04S
6HR MIN TEMP:  47; 6HR MAX TEMP:  53; 6HR PCP:  0.25;

SPARTA         LGT RAIN  45  38  75 E16       30.06R
6HR MIN TEMP:  45; 6HR MAX TEMP:  53; 6HR PCP:  0.05;

VIROQUA        CLOUDY    43  41  94 NE13      30.02S
6HR MIN TEMP:  43; 6HR MAX TEMP:  47; 6HR PCP:  0.51;

BOSCOBEL       CLOUDY    46  50 100 NE8       30.00R
6HR MIN TEMP:  46; 6HR MAX TEMP:  49; 6HR PCP:  0.38;

PRAIRIE DU CHI RAIN      45  42  88 NE7       29.99S
6HR MIN TEMP:  45; 6HR MAX TEMP:  47; 6HR PCP:  0.46;

PLATTEVILLE    CLOUDY    44  42  93 E20G28    29.95S
$$

WIZ056-057-062-063-064-067-068-010100-
SOUTH CENTRAL WISCONSIN

CITY           SKY/WX    TMP DP  RH WIND       PRES   REMARKS
REEDSBURG      RAIN      43  42  97 NE8       30.02S
6HR MIN TEMP:  43; 6HR MAX TEMP:  49; 6HR PCP:  0.42;

BARABOO/DELLS  LGT RAIN  43  41  93 E9        30.02F
6HR MIN TEMP:  43; 6HR MAX TEMP:  49; 6HR PCP:  0.42;

LONE ROCK      CLOUDY    45  40  82 NE14G28   30.00R
6HR MIN TEMP:  45; 6HR MAX TEMP:  48; 6HR PCP:  0.36;

MINERAL POINT  CLOUDY    43  43 100 NE17G24   29.96R
MADISON        LGT RAIN  44  40  85 NE10G21   30.03R FOG
6HR MIN TEMP:  44; 6HR MAX TEMP:  48; 6HR PCP:  0.33;

MIDDLETON      CLOUDY    45  42  89 E18G25    30.00S
6HR MIN TEMP:  45; 6HR MAX TEMP:  49; 6HR PCP:  0.31;

WATERTOWN      LGT RAIN  43  43 100 NE10G16   30.01F
6HR MIN TEMP:  43; 6HR MAX TEMP:  49; 6HR PCP:  0.25;

MONROE         RAIN      41  41 100 NE23G31   29.92F
JANESVILLE     LGT RAIN  45  43  93 NE16G24   29.95R FOG
$$

WIZ051-052-058>065-066-070>072-010100-
SOUTHEAST WISCONSIN

CITY           SKY/WX    TMP DP  RH WIND       PRES   REMARKS
MILWAUKEE      RAIN      42  39  89 N14       30.01S FOG
6HR MIN TEMP:  42; 6HR MAX TEMP:  46; 6HR PCP:  0.18;

WAUKESHA       RAIN      41  39  93 NE14      30.02S FOG
MILWAUKEE/TIMM RAIN      43  37  81 NE9       30.03
RACINE         RAIN      42  39  89 NE14      30.02S FOG
6HR MIN TEMP:  42; 6HR MAX TEMP:  45; 6HR PCP:  0.22;

BURLINGTON     LGT RAIN  41  40  97 NE13      29.97F
6HR MIN TEMP:  41; 6HR MAX TEMP:  45; 6HR PCP:  0.30;

KENOSHA        RAIN      43  40  89 NE12      29.99R FOG
6HR MIN TEMP:  43; 6HR MAX TEMP:  45; 6HR PCP:  0.35;

FOND DU LAC    LGT RAIN  47  39  74 NE14G20   30.05R
6HR MIN TEMP:  47; 6HR MAX TEMP:  53; 6HR PCP:  0.02;

SHEBOYGAN      LGT RAIN  45  35  68 NE13      30.05R
6HR MIN TEMP:  45; 6HR MAX TEMP:  49; 6HR PCP:  0.02;

WEST BEND      RAIN      41  37  87 NE9       30.04S
JUNEAU         LGT RAIN  43  41  91 NE8       30.04S
6HR MIN TEMP:  43; 6HR MAX TEMP:  49; 6HR PCP:  0.20;

$$

LSZ147-162-010100-
LAKE SUPERIOR

STATION/POSITION TIME  TEMP    WIND        PRES    WAVE
                       AIR SEA DIR/SP/G            HT/PER
                 (UTC) (F)     (DEG/KT/KT) (MB)    (FT/S)
W MID LAKE BUOY  2350   40 37   30/ 10/ 12 1024.8F   2/ 4
DEVILS ISLAND    0000   40      60/ 17/ 19 1024.7S
PORT WING        2340   40      20/ 17/ 18 1023.7S
SAXON HARBOR     2300   40      50/ 20/ 24 1022.4R
$$

LMZ867-665-643>646-010100-
LAKE MICHIGAN

STATION/POSITION TIME  TEMP    WIND        PRES    WAVE
                       AIR SEA DIR/SP/G            HT/PER
                 (UTC) (F)     (DEG/KT/KT) (MB)    (FT/S)
CHAMBERS ISLAND  2300   45      20/ 14/ 16 1019.0S
N MID LAKE BUOY  2350   43 39   40/ 12/ 14 1018.8R   1
NORTHPORT PIER   230C1F1C2F2C3F3C4F4C5F5C6F6C7F7C8M1C9M2Ca!



USA.gov is the U.S. government's official web portal to all federal, state and local government web resources and services.